Date String (YYYY-MM-DD hh:mm:ss) UTC,Instrument flags,Ambient pressure (hPa),Sample flow (lpm),Bypass flow (lpm),Sample temperature (°C),Ambient temperature (°C),ASC tube jacket temperature (°C),LED temperature (°C),Box temperature (°C),Sample RH (%),Span deviation,Mass concentration (μg/m³),Mass concentration (μg/m³),Mass concentration (μg/m³)
DateTimeUTC,F1_M11,P_M11,Q1_M11,Q2_M11,T1_M11,T2_M11,T3_M11,T4_M11,T5_M11,U1_M11,ZSPAN_M11,X0_M11,X2_M11,X1_M11
2022-10-21 09:00:00,,0821.5,5.01,0.00,30.4,28.9,00.0,39.2,32.2,07.5,0000.0,0005.61,0001.92,0001.30
2022-10-21 09:01:00,,0821.5,5.00,0.00,30.4,28.9,00.0,39.2,32.1,07.5,0000.0,0005.35,0001.94,0001.31
2022-10-21 09:02:00,,0821.5,5.00,0.00,30.4,28.8,00.0,39.2,32.2,07.5,0000.0,0004.28,0001.96,0001.33
2022-10-21 09:03:00,,0821.5,5.01,0.00,30.4,28.8,00.0,39.2,32.2,07.5,0000.0,0004.39,0001.97,0001.35
2022-10-21 09:04:00,,0821.5,4.99,0.00,30.4,28.8,00.0,39.2,32.1,07.5,0000.0,0004.46,0001.99,0001.36
2022-10-21 09:05:00,,0821.5,5.01,0.00,30.3,28.8,00.0,39.2,32.1,07.5,0000.0,0004.38,0001.97,0001.37
2022-10-21 09:06:00,,0821.5,5.00,0.00,30.3,28.8,00.0,39.2,32.1,07.7,0000.0,0004.56,0002.01,0001.36
2022-10-21 09:07:00,,0821.5,4.99,0.00,30.3,28.8,00.0,39.2,32.1,07.9,0000.0,0004.22,0001.96,0001.36
2022-10-21 09:08:00,,0821.5,4.99,0.00,30.3,28.7,00.0,39.2,32.1,07.8,0000.0,0004.01,0001.93,0001.36
2022-10-21 09:09:00,,0821.4,5.00,0.00,30.3,28.7,00.0,39.2,32.1,07.9,0000.0,0003.80,0001.94,0001.37
2022-10-21 09:10:00,,0821.4,5.01,0.00,30.3,28.7,00.0,39.2,32.1,08.0,0000.0,0003.75,0001.95,0001.37
2022-10-21 09:11:00,,0821.4,4.99,0.00,30.3,28.7,00.0,39.2,32.1,08.1,0000.0,0003.63,0001.92,0001.37
2022-10-21 09:12:00,,0821.4,5.00,0.00,30.3,28.7,00.0,39.2,32.1,08.2,0000.0,0003.61,0001.90,0001.37
2022-10-21 09:13:00,,0821.4,5.00,0.00,30.3,28.7,00.0,39.2,32.0,08.2,0000.0,0003.66,0001.88,0001.36
2022-10-21 09:14:00,,0821.4,4.99,0.00,30.3,28.7,00.0,39.2,32.0,08.2,0000.0,0003.68,0001.90,0001.35
2022-10-21 09:15:00,,0821.4,4.99,0.00,30.3,28.6,00.0,39.2,32.0,08.1,0000.0,0004.07,0001.92,0001.35
2022-10-21 09:16:00,,0821.4,5.01,0.00,30.3,28.6,00.0,39.2,32.0,08.1,0000.0,0004.26,0001.95,0001.34
2022-10-21 09:17:00,,0821.4,5.01,0.00,30.3,28.6,00.0,39.2,32.0,08.0,0000.0,0004.25,0001.95,0001.34
2022-10-21 09:18:00,,0821.3,4.99,0.00,30.3,28.6,00.0,39.2,32.0,07.9,0000.0,0004.36,0001.94,0001.33
2022-10-21 09:19:00,,0821.4,4.99,0.00,30.3,28.6,00.0,39.2,31.9,08.0,0000.0,0004.33,0001.95,0001.32
2022-10-21 09:20:00,,0821.4,5.01,0.00,30.3,28.6,00.0,39.2,31.9,08.0,0000.0,0004.50,0001.96,0001.32
2022-10-21 09:21:00,,0821.2,5.00,0.00,30.3,28.6,00.0,39.2,32.0,08.0,0000.0,0004.82,0001.97,0001.32
2022-10-21 09:22:00,,0821.3,5.00,0.00,30.2,28.6,00.0,39.2,31.9,07.8,0000.0,0006.01,0002.02,0001.31
2022-10-21 09:23:00,,0821.3,5.01,0.00,30.2,28.5,00.0,39.2,31.8,07.8,0000.0,0006.87,0002.04,0001.30
2022-10-21 09:24:00,,0821.2,4.98,0.00,30.2,28.5,00.0,39.1,31.8,07.8,0000.0,0007.87,0002.05,0001.31
2022-10-21 09:25:00,,0821.2,5.01,0.00,30.2,28.4,00.0,39.1,31.7,07.8,0000.0,0009.30,0002.02,0001.32
2022-10-21 09:26:00,,0821.2,5.01,0.00,30.2,28.4,00.0,39.1,31.8,07.8,0000.0,0010.37,0002.05,0001.32
2022-10-21 09:27:00,,0821.2,5.00,0.00,30.2,28.4,00.0,39.1,31.8,07.8,0000.0,0010.89,0002.02,0001.32
2022-10-21 09:28:00,,0821.2,4.99,0.00,30.1,28.4,00.0,39.1,31.7,07.8,0000.0,0010.97,0001.99,0001.31
2022-10-21 09:29:00,,0821.1,5.00,0.00,30.1,28.3,00.0,39.1,31.8,07.8,0000.0,0011.33,0002.06,0001.32
2022-10-21 09:30:00,,0821.1,5.01,0.00,30.1,28.3,00.0,39.1,31.8,07.6,0000.0,0011.71,0002.18,0001.33
2022-10-21 09:31:00,,0821.1,5.01,0.00,30.1,28.3,00.0,39.1,31.7,07.7,0000.0,0012.05,0002.25,0001.33
2022-10-21 09:32:00,,0821.0,5.00,0.00,30.1,28.3,00.0,39.1,31.7,07.7,0000.0,0012.94,0002.33,0001.33
2022-10-21 09:33:00,,0821.0,4.99,0.00,30.1,28.3,00.0,39.1,31.6,07.8,0000.0,0013.65,0002.45,0001.34
2022-10-21 09:34:00,,0821.0,4.99,0.00,30.1,28.2,00.0,39.0,31.7,07.6,0000.0,0014.87,0002.53,0001.35
2022-10-21 09:35:00,,0821.1,5.01,0.00,30.1,28.3,00.0,39.0,31.7,07.6,0000.0,0015.01,0002.65,0001.36
2022-10-21 09:36:00,,0821.1,5.00,0.00,30.0,28.2,00.0,39.0,31.6,07.7,0000.0,0014.99,0002.91,0001.36
2022-10-21 09:37:00,,0820.9,4.97,0.00,30.0,28.2,00.0,39.0,31.6,07.7,0000.0,0014.41,0002.97,0001.37
2022-10-21 09:38:00,,0821.0,5.00,0.00,30.0,28.2,00.0,39.0,31.6,07.7,0000.0,0014.57,0003.01,0001.38
2022-10-21 09:39:00,,0821.0,5.00,0.00,30.0,28.2,00.0,39.0,31.7,07.7,0000.0,0015.05,0003.05,0001.38
2022-10-21 09:40:00,,0820.9,4.99,0.00,30.0,28.2,00.0,39.0,31.6,07.8,0000.0,0014.81,0002.95,0001.38
2022-10-21 09:41:00,,0821.1,4.99,0.00,30.0,28.2,00.0,39.0,31.7,07.7,0000.0,0015.96,0002.89,0001.37
2022-10-21 09:42:00,,0821.1,5.01,0.00,30.0,28.2,00.0,39.0,31.6,07.5,0000.0,0015.85,0002.88,0001.36
2022-10-21 09:43:00,,0821.0,5.01,0.00,30.0,28.1,00.0,38.9,31.6,07.7,0000.0,0014.98,0002.76,0001.35
2022-10-21 09:44:00,,0821.0,4.99,0.00,30.0,28.1,00.0,38.9,31.6,07.6,0000.0,0014.12,0002.61,0001.32
2022-10-21 09:45:00,,0821.1,5.00,0.00,29.9,28.1,00.0,38.9,31.6,07.6,0000.0,0012.28,0002.52,0001.31
2022-10-21 09:46:00,,0821.2,5.00,0.00,29.9,28.1,00.0,38.9,31.5,07.6,0000.0,0011.50,0002.37,0001.30
2022-10-21 09:47:00,,0821.0,5.00,0.00,29.9,28.1,00.0,38.9,31.5,07.5,0000.0,0010.26,0002.14,0001.28
2022-10-21 09:48:00,,0821.0,5.00,0.00,29.9,28.1,00.0,38.9,31.6,07.3,0000.0,0009.55,0002.05,0001.26
2022-10-21 09:49:00,,0821.1,5.00,0.00,29.9,28.1,00.0,38.9,31.6,07.5,0000.0,0008.54,0002.08,0001.26
2022-10-21 09:50:00,,0821.1,5.01,0.00,29.9,28.1,00.0,38.9,31.5,07.6,0000.0,0007.90,0002.03,0001.25
2022-10-21 09:51:00,,0821.1,5.00,0.00,29.9,28.1,00.0,38.8,31.5,07.5,0000.0,0007.71,0002.07,0001.25
2022-10-21 09:52:00,,0821.0,5.01,0.00,29.9,28.1,00.0,38.8,31.5,07.6,0000.0,0005.32,0002.03,0001.25
2022-10-21 09:53:00,,0820.9,5.00,0.00,29.9,28.1,00.0,38.8,31.5,07.6,0000.0,0005.31,0001.98,0001.25
2022-10-21 09:54:00,,0821.0,4.98,0.00,29.8,28.0,00.0,38.8,31.4,07.6,0000.0,0005.00,0001.99,0001.26
2022-10-21 09:55:00,,0821.1,5.01,0.00,29.8,28.0,00.0,38.8,31.4,07.7,0000.0,0004.75,0001.97,0001.27
2022-10-21 09:56:00,,0821.1,4.99,0.00,29.8,28.0,00.0,38.8,31.4,07.8,0000.0,0004.69,0001.93,0001.27
2022-10-21 09:57:00,,0821.1,4.99,0.00,29.8,28.1,00.0,38.8,31.5,07.8,0000.0,0004.44,0001.91,0001.27
2022-10-21 09:58:00,,0821.1,5.00,0.00,29.8,28.1,00.0,38.8,31.5,07.8,0000.0,0004.24,0001.89,0001.28
2022-10-21 09:59:00,,0821.1,5.00,0.00,29.8,28.1,00.0,38.8,31.4,07.8,0000.0,0004.39,0001.91,0001.29
